Weather History for KFTN - January, 2014

Change the Weather History Date:

Wednesday, January 22, 2014

  Actual Average (KCOT) Record (KCOT)
Temperature  
Mean Temperature 52 °F -  
Max Temperature 73 °F 66 °F 82 °F (2009)
Min Temperature 32 °F 44 °F 27 °F (2011)
Degree Days  
Heating Degree Days 12    
Growing Degree Days 2 (Base 50)    
Moisture  
Dew Point 24 °F    
Average Humidity 36    
Maximum Humidity 69    
Minimum Humidity 15    
Precipitation  
Precipitation 0.00 in - - ()
Sea Level Pressure  
Sea Level Pressure 30.08 in    
Wind  
Wind Speed 8 mph (SSE)    
Max Wind Speed 16 mph    
Max Gust Speed 21 mph    
Visibility 10 miles    
Events      
Averages and records for this station are not official NWS values.
T = Trace of Precipitation, MM = Missing Value Source: NWS Daily Summary

Daily Weather History Graph

Daily Weather History Graph

Search for Another Location

Airport or City:

Trip Planner

Search our weather history database for the weather conditions in past years. The results will help you decide how hot, cold, wet, or windy it might be!

Date:

Astronomy

Jan. 22, 2014 Rise Set
Actual Time 7:31 AM CST 6:12 PM CST
Civil Twilight 7:06 AM CST 6:37 PM CST
Nautical Twilight 6:38 AM CST 7:05 PM CST
Astronomical Twilight 6:09 AM CST 7:33 PM CST
Moon No Moon Rise 11:07 AM CST (1/22)
Length of Visible Light 11h 30m
Length of Day
10h 40m
Waning Gibbous, 65% of the Moon is Illuminated
Jan 22
Waning Gibbous
Jan 23
Last Quarter
Jan 30
New
Feb 6
First Quarter
Feb 14
Full

Hourly Weather History & Observations

Time (CST) Temp. Windchill Dew Point Humidity Pressure Visibility Wind Dir Wind Speed Gust Speed Precip Events Conditions
12:15 AM 44.6 °F 40.2 °F 19.4 °F 37% 30.24 in 10.0 mi ESE 8.1 mph - N/A   Clear
12:35 AM 44.6 °F 40.7 °F 19.4 °F 37% 30.23 in 10.0 mi SE 6.9 mph - N/A   Clear
12:55 AM 44.6 °F 40.2 °F 19.4 °F 37% 30.23 in 10.0 mi SSE 8.1 mph - N/A   Clear
1:15 AM 44.6 °F 40.7 °F 19.4 °F 37% 30.23 in 10.0 mi SSE 6.9 mph - N/A   Clear
1:35 AM 42.8 °F 38.6 °F 21.2 °F 42% 30.22 in 10.0 mi SSE 6.9 mph - N/A   Clear
1:55 AM 39.2 °F 35.9 °F 21.2 °F 49% 30.22 in 10.0 mi SSE 4.6 mph - N/A   Clear
2:15 AM 35.6 °F 30.7 °F 23.0 °F 60% 30.21 in - South 5.8 mph - N/A   Clear
2:35 AM 37.4 °F 33.8 °F 23.0 °F 56% 30.21 in 10.0 mi South 4.6 mph - N/A   Clear
2:55 AM 35.6 °F 32.8 °F 21.2 °F 56% 30.20 in - SSW 3.5 mph - N/A   Clear
3:15 AM 35.6 °F 32.8 °F 21.2 °F 56% 30.19 in - SSW 3.5 mph - N/A   Clear
3:35 AM 35.6 °F 31.7 °F 23.0 °F 60% 30.19 in - South 4.6 mph - N/A   Clear
3:55 AM 32.0 °F 26.4 °F 21.2 °F 64% 30.19 in - South 5.8 mph - N/A   Clear
4:15 AM 32.0 °F 27.5 °F 23.0 °F 69% 30.18 in - South 4.6 mph - N/A   Clear
4:35 AM 32.0 °F 27.5 °F 21.2 °F 64% 30.17 in - SE 4.6 mph - N/A   Clear
4:55 AM 35.6 °F 30.7 °F 21.2 °F 56% 30.17 in - SSE 5.8 mph - N/A   Clear
5:15 AM 35.6 °F 29.9 °F 21.2 °F 56% 30.16 in - SE 6.9 mph - N/A   Clear
5:35 AM 35.6 °F 29.9 °F 21.2 °F 56% 30.16 in - SE 6.9 mph - N/A   Clear
5:55 AM 35.6 °F 29.9 °F 19.4 °F 52% 30.16 in - SE 6.9 mph - N/A   Clear
6:15 AM 35.6 °F 29.9 °F 21.2 °F 56% 30.16 in - SE 6.9 mph - N/A   Clear
6:35 AM 37.4 °F 31.4 °F 21.2 °F 52% 30.16 in 10.0 mi SSE 8.1 mph - N/A   Clear
6:55 AM 37.4 °F 31.4 °F 21.2 °F 52% 30.16 in 10.0 mi SSE 8.1 mph - N/A   Clear
7:15 AM 37.4 °F 32.8 °F 21.2 °F 52% 30.17 in 10.0 mi South 5.8 mph - N/A   Clear
7:35 AM 37.4 °F 34.9 °F 21.2 °F 52% 30.17 in 10.0 mi South 3.5 mph - N/A   Clear
7:55 AM 37.4 °F 34.9 °F 21.2 °F 52% 30.17 in 10.0 mi SSE 3.5 mph - N/A   Clear
8:15 AM 39.2 °F 35.9 °F 23.0 °F 52% 30.17 in 10.0 mi SSE 4.6 mph - N/A   Clear
8:35 AM 41.0 °F 38.0 °F 23.0 °F 49% 30.17 in 10.0 mi South 4.6 mph - N/A   Clear
8:55 AM 44.6 °F 42.2 °F 24.8 °F 46% 30.17 in 10.0 mi South 4.6 mph - N/A   Clear
9:15 AM 48.2 °F - 23.0 °F 37% 30.18 in 10.0 mi South 5.8 mph - N/A   Clear
9:35 AM 53.6 °F - 23.0 °F 30% 30.17 in 10.0 mi SSE 8.1 mph - N/A   Clear
9:55 AM 55.4 °F - 23.0 °F 29% 30.18 in 10.0 mi SSE 8.1 mph - N/A   Clear
10:15 AM 57.2 °F - 23.0 °F 27% 30.18 in 10.0 mi South 9.2 mph - N/A   Clear
10:35 AM 59.0 °F - 23.0 °F 25% 30.18 in 10.0 mi SSE 12.7 mph 16.1 mph N/A   Clear
10:55 AM 60.8 °F - 23.0 °F 23% 30.17 in 10.0 mi SSE 12.7 mph - N/A   Clear
11:15 AM 62.6 °F - 24.8 °F 24% 30.17 in 10.0 mi SSE 12.7 mph - N/A   Clear
11:35 AM 62.6 °F - 24.8 °F 24% 30.16 in 10.0 mi SSE 10.4 mph - N/A   Partly Cloudy
11:55 AM 64.4 °F - 24.8 °F 22% 30.14 in 10.0 mi SSE 11.5 mph - N/A   Partly Cloudy
12:15 PM 66.2 °F - 24.8 °F 21% 30.11 in 10.0 mi SSE 10.4 mph 16.1 mph N/A   Partly Cloudy
12:35 PM 66.2 °F - 24.8 °F 21% 30.09 in 10.0 mi SSE 10.4 mph 16.1 mph N/A   Partly Cloudy
12:55 PM 68.0 °F - 24.8 °F 20% 30.06 in 10.0 mi SSE 15.0 mph 20.7 mph N/A   Partly Cloudy
1:15 PM 69.8 °F - 23.0 °F 17% 30.04 in 10.0 mi South 12.7 mph 20.7 mph N/A   Clear
1:35 PM 69.8 °F - 23.0 °F 17% 30.02 in 10.0 mi SSE 15.0 mph 20.7 mph N/A   Clear
1:55 PM 71.6 °F - 23.0 °F 16% 30.00 in 10.0 mi SE 16.1 mph 19.6 mph N/A   Clear
2:15 PM 71.6 °F - 23.0 °F 16% 29.99 in 10.0 mi SE 11.5 mph 18.4 mph N/A   Clear
2:35 PM 71.6 °F - 23.0 °F 16% 29.99 in 10.0 mi South 9.2 mph 18.4 mph N/A   Clear
2:55 PM 71.6 °F - 24.8 °F 17% 29.98 in 10.0 mi SE 13.8 mph 17.3 mph N/A   Clear
3:15 PM 73.4 °F - 23.0 °F 15% 29.97 in 10.0 mi SSE 11.5 mph 20.7 mph N/A   Clear
3:35 PM 73.4 °F - 23.0 °F 15% 29.96 in 10.0 mi SE 11.5 mph 19.6 mph N/A   Clear
3:55 PM 73.4 °F - 23.0 °F 15% 29.96 in 10.0 mi South 11.5 mph 19.6 mph N/A   Clear
4:15 PM 71.6 °F - 24.8 °F 17% 29.95 in 10.0 mi SSE 13.8 mph 20.7 mph N/A   Clear
4:35 PM 71.6 °F - 24.8 °F 17% 29.95 in 10.0 mi SSE 10.4 mph 17.3 mph N/A   Clear
4:55 PM 71.6 °F - 24.8 °F 17% 29.95 in 10.0 mi SSE 13.8 mph 19.6 mph N/A   Clear
5:15 PM 71.6 °F - 24.8 °F 17% 29.95 in 10.0 mi SSE 12.7 mph 19.6 mph N/A   Clear
5:35 PM 69.8 °F - 24.8 °F 18% 29.95 in 10.0 mi SSE 10.4 mph - N/A   Clear
5:55 PM 68.0 °F - 24.8 °F 20% 29.95 in 10.0 mi SSE 11.5 mph 16.1 mph N/A   Clear
6:15 PM 66.2 °F - 26.6 °F 23% 29.95 in 10.0 mi SSE 9.2 mph 17.3 mph N/A   Clear
6:35 PM 64.4 °F - 26.6 °F 24% 29.96 in 10.0 mi SSE 5.8 mph - N/A   Clear
6:55 PM 62.6 °F - 26.6 °F 26% 29.96 in 10.0 mi SSE 5.8 mph - N/A   Clear
7:15 PM 60.8 °F - 28.4 °F 29% 29.96 in 10.0 mi SSE 6.9 mph - N/A   Clear
7:35 PM 59.0 °F - 28.4 °F 31% 29.96 in 10.0 mi SE 6.9 mph - N/A   Clear
7:55 PM 57.2 °F - 28.4 °F 33% 29.97 in 10.0 mi ESE 5.8 mph - N/A   Clear
8:15 PM 57.2 °F - 28.4 °F 33% 29.96 in 10.0 mi SE 8.1 mph - N/A   Clear
8:35 PM 57.2 °F - 28.4 °F 33% 29.96 in 10.0 mi ESE 5.8 mph - N/A   Clear
8:55 PM 53.6 °F - 28.4 °F 38% 29.96 in 10.0 mi ESE 6.9 mph - N/A   Clear
9:15 PM 55.4 °F - 28.4 °F 36% 29.97 in 10.0 mi ESE 6.9 mph - N/A   Clear
9:35 PM 55.4 °F - 26.6 °F 33% 29.98 in 10.0 mi ESE 6.9 mph - N/A   Clear
9:55 PM 55.4 °F - 26.6 °F 33% 29.98 in 10.0 mi SE 8.1 mph - N/A   Clear
10:15 PM 57.2 °F - 28.4 °F 33% 29.98 in 10.0 mi SE 6.9 mph - N/A   Clear
10:35 PM 57.2 °F - 28.4 °F 33% 29.98 in 10.0 mi SE 8.1 mph - N/A   Clear
10:55 PM 57.2 °F - 30.2 °F 36% 29.98 in 10.0 mi SE 8.1 mph - N/A   Clear
11:15 PM 55.4 °F - 30.2 °F 38% 29.98 in 10.0 mi ESE 6.9 mph - N/A   Clear
11:35 PM 55.4 °F - 32.0 °F 41% 29.96 in 10.0 mi SE 10.4 mph - N/A   Clear
11:55 PM 55.4 °F - 33.8 °F 44% 29.96 in 10.0 mi SE 9.2 mph - N/A   Clear